Total_Precipitation_Accumulation
0.05 0.08 0.11 0.14 0.11 0.10 0.10 0.11 0.15 0.15 0.17 0.19 0.21 0.21 0.23 0.24 0.24 0.24 0.24 0.25 0.22 0.21
0.05 0.08 0.08 0.10 0.10 0.11 0.10 0.12 0.15 0.15 0.15 0.18 0.20 0.22 0.24 0.24 0.22 0.22 0.23 0.22 0.20 0.14
0.05 0.07 0.07 0.07 0.05 0.06 0.09 0.10 0.10 0.10 0.12 0.15 0.18 0.19 0.20 0.22 0.19 0.22 0.22 0.23 0.27 0.28
0.04 0.06 0.07 0.07 0.05 0.05 0.07 0.07 0.07 0.08 0.09 0.09 0.09 0.10 0.13 0.17 0.27 0.36 0.42 0.46 0.47 0.48
0.03 0.04 0.05 0.05 0.07 0.07 0.07 0.05 0.05 0.05 0.04 0.04 0.06 0.09 0.10 0.11 0.13 0.17 0.23 0.29 0.35 0.40
0.04 0.05 0.06 0.06 0.06 0.06 0.06 0.06 0.05 0.04 0.03 0.02 0.02 0.03 0.05 0.08 0.12 0.17 0.25 0.29 0.31 0.34
0.07 0.08 0.07 0.07 0.06 0.05 0.05 0.05 0.04 0.05 0.05 0.06 0.06 0.07 0.09 0.08 0.08 0.07 0.07 0.08 0.11 0.17
0.06 0.08 0.07 0.06 0.07 0.05 0.04 0.04 0.04 0.08 0.14 0.16 0.16 0.19 0.18 0.17 0.17 0.18 0.21 0.23 0.27 0.32
0.05 0.06 0.08 0.09 0.09 0.09 0.09 0.10 0.10 0.13 0.14 0.17 0.21 0.35 0.29 0.25 0.26 0.28 0.29 0.31 0.33 0.36
0.08 0.09 0.12 0.14 0.16 0.14 0.12 0.15 0.24 0.25 0.20 0.16 0.15 0.27 0.22 0.21 0.20 0.23 0.25 0.25 0.22 0.19
0.47 0.39 0.39 0.41 0.40 0.32 0.30 0.29 0.25 0.27 0.37 0.45 0.53 0.50 0.36 0.28 0.20 0.19 0.17 0.15 0.13 0.09
0.66 0.62 0.87 1.01 0.86 0.75 0.73 0.68 0.77 0.64 0.55 0.66 0.74 0.61 0.47 0.30 0.22 0.18 0.13 0.07 0.02 0.00
0.78 0.64 0.75 0.70 0.76 0.71 0.63 0.68 0.66 0.70 0.57 0.52 0.48 0.34 0.27 0.19 0.12 0.06 0.01 0.00 0.00 0.00
0.55 0.71 0.67 0.69 0.53 0.61 0.53 0.41 0.37 0.33 0.30 0.20 0.12 0.04 0.01 0.00 0.00 0.00 0.00 0.00 0.00 0.00